[[{"header":{"parameterUnit":"m.s-1","parameterCategory":1,"la1":30.2991,"la2":30.254,"lo1":-89.0895,"lo2":-89.0444,"dy":0.0017,"dx":0.0017,"nx":28,"ny":28,"refTime":"2024-08-22T03:00:00:Z","depth":0,"parameterNumber":2,"parameterNumberName":"U-component_of_WINDS"},"data":[0,0,0,0,0,0,0,0,0,0,0,0,0,0,0,0,0,0,0,0,0,0,0,0,0,0,0,0,0,0,0,0,0,0,0,0,0,0,0,0,0,0,0,0,0,0,0,0,0,0,0,0,0,0,0,0,0,0,-4.7388,-4.7388,0,-4.7369,-4.7369,-4.7369,-4.7249,-4.7246,-4.7243,-4.724,-4.7226,-4.7228,-4.7231,0,0,0,0,0,0,0,0,0,0,0,0,0,-4.7326,-4.7327,-4.7388,-4.7388,-4.7387,-4.7369,-4.7369,-4.7369,-4.7249,-4.7246,-4.7242,-4.7239,-4.7225,-4.7228,-4.7231,0,0,0,0,0,0,0,0,0,0,0,0,0,-4.7335,-4.7328,-4.7388,-4.7326,-4.732,-4.7369,-4.7369,-4.7369,-4.725,-4.7246,-4.7241,-4.7237,-4.7224,-4.7228,-4.7231,-4.734,0,0,-4.7242,-4.7243,0,0,0,0,0,0,0,0,-4.7334,-4.7337,-4.7335,-4.733,-4.7324,-4.7307,-4.7341,-4.7359,-4.7251,-4.7277,-4.724,-4.7235,-4.7257,-4.7257,-4.7264,-4.734,-4.7339,-4.7242,-4.7244,-4.7246,-4.7247,0,0,0,0,0,0,0,-4.7334,-4.7337,-4.7381,-4.7335,-4.7328,-4.73,-4.7297,-4.7344,-4.7292,-4.7274,-4.7265,-4.7265,-4.7253,-4.726,-4.7262,-4.7339,-4.7242,-4.7245,-4.7247,-4.7249,-4.7507,-4.7511,0,0,0,0,0,0,-4.7341,-4.7337,-4.7381,-4.738,-4.7318,-4.7305,-4.7301,-4.7317,-4.7291,-4.7283,-4.7268,-4.7259,-4.7257,-4.7258,-4.7261,-4.7389,-4.7246,-4.7249,-4.7251,-4.7502,-4.7508,-4.7513,0,0,0,0,0,0,-4.734,-4.7346,-4.7382,-4.7356,-4.7359,-4.7311,-4.7329,-4.7319,-4.7326,-4.7286,-4.7277,-4.7286,-4.7253,-4.7256,-4.7322,-4.7387,-4.7251,-4.7254,-4.7496,-4.7504,-4.751,-4.7646,0,0,0,0,0,0,-4.7339,-4.7347,-4.7386,-4.7358,-4.736,-4.7442,-4.7333,-4.7321,-4.7332,-4.732,-4.73,-4.7293,-4.725,-4.7317,-4.7325,-4.739,-4.7257,-4.749,-4.75,-4.7508,-4.7635,-4.7657,-4.7675,0,0,0,0,0,-4.7337,-4.7426,-4.7389,-4.7395,-4.7409,-4.7446,-4.7447,-4.7395,-4.7338,-4.7378,-4.7353,-4.7293,-4.7378,-4.7325,-4.7333,-4.7399,-4.7486,-4.7497,-4.7507,-4.7626,-4.7653,-4.7674,0,0,0,0,0,0,-4.7464,-4.7421,-4.738,-4.7461,-4.7458,-4.7425,-4.7475,-4.7424,-4.7438,-4.7426,-4.7362,-4.7359,-4.7435,-4.7423,-4.7364,-4.7505,-4.7422,-4.7435,-4.751,-4.7534,-4.7554,-4.7556,-4.726,0,0,0,0,0,-4.7502,-4.7533,-4.7494,-4.757,-4.757,-4.7523,-4.7537,-4.7497,-4.7492,-4.749,-4.7469,-4.7468,-4.7494,-4.7513,-4.7535,-4.7632,-4.7628,-4.7682,-4.7702,-4.7719,-4.7731,-4.7784,-4.7809,-4.7548,-4.7548,-4.7547,0,0,-4.758,-4.756,-4.7584,-4.7595,-4.7588,-4.7624,-4.7523,-4.7565,-4.7592,-4.7497,-4.7558,-4.7543,-4.7537,-4.762,-4.7655,-4.7612,-4.7802,-4.7732,-4.7746,-4.7749,-4.7798,-4.7823,-4.7845,-4.7555,-4.7554,-4.7553,0,0,-4.774,-4.7728,-4.779,-4.7785,-4.7775,-4.7743,-4.7759,-4.7734,-4.772,-4.7779,-4.7709,-4.7741,-4.7788,-4.7787,-4.7793,-4.7955,-4.7902,-4.7964,-4.8069,-4.8121,-4.8142,-4.816,-4.822,-4.8242,-4.7976,-4.7977,-4.7977,0,-4.7839,-4.7889,-4.783,-4.7877,-4.7885,-4.7799,-4.7864,-4.7862,-4.7861,-4.7869,-4.7821,-4.7879,-4.7868,-4.7951,-4.7991,-4.7997,-4.8015,-4.7967,-4.8143,-4.8161,-4.8177,-4.8234,-4.8256,-4.7984,-4.7983,-4.7983,-4.7982,0,-4.8013,-4.8049,-4.8101,-4.8101,-4.8114,-4.817,-4.8121,-4.8143,-4.8102,-4.8076,-4.8139,-4.8124,-4.8142,-4.8159,-4.8119,-4.8237,-4.8211,-4.8154,-4.807,-4.821,-4.8263,-4.8284,-4.7996,-4.7993,-4.799,-4.7988,0,0,-4.8254,-4.822,-4.824,-4.824,-4.8223,-4.8251,-4.8303,-4.832,-4.8341,-4.8343,-4.8388,-4.8429,-4.8377,-4.8384,-4.8344,-4.839,-4.8523,-4.8327,-4.8326,-4.8367,-4.8654,-4.8699,-4.8725,-4.8486,-4.849,-4.8493,-4.8655,0,-4.841,-4.8497,-4.8445,-4.8541,-4.8575,-4.8495,-4.8541,-4.8537,-4.8514,-4.8541,-4.8517,-4.8548,-4.8475,-4.8479,-4.8521,-4.8498,-4.858,-4.8485,-4.853,-4.8532,-4.8536,-4.8752,-4.8798,-4.8952,-4.8675,-4.8679,-4.8681,0,-4.8604,-4.8614,-4.8713,-4.869,-4.8703,-4.8745,-4.8758,-4.8783,-4.8778,-4.8759,-4.8767,-4.8716,-4.8769,-4.8684,-4.8758,-4.8694,-4.871,-4.8701,-4.8706,-4.871,-4.8617,-4.8764,-4.9,-4.9024,-4.8712,-4.871,-4.8708,0,-4.8773,-4.8811,-4.8875,-4.8877,-4.8852,-4.8885,-4.8876,-4.8866,-4.888,-4.8891,-4.89,-4.8918,-4.8929,-4.8945,-4.8901,-4.8843,-4.8982,-4.8893,-4.897,-4.8971,-4.9004,-4.9003,-4.9248,-4.901,-4.901,-4.901,-4.9009,0,-4.8955,-4.9019,-4.8951,-4.8992,-4.9062,-4.9003,-4.9075,-4.9058,-4.905,-4.9087,-4.9018,-4.9055,-4.8994,-4.9025,-4.8991,-4.9059,-4.9064,-4.9051,-4.9042,-4.9059,-4.9061,-4.907,-4.9059,-4.9016,-4.9014,-4.9013,-4.9012,0,-4.9156,-4.9113,-4.9179,-4.915,-4.9144,-4.9198,-4.9174,-4.9211,-4.9183,-4.9231,-4.9239,-4.9197,-4.923,-4.9188,-4.9218,-4.9195,-4.9288,-4.9262,-4.929,-4.9283,-4.9363,-4.9358,-4.9625,-4.9658,-4.9397,-4.9399,-4.9402,0,-4.9276,-4.9324,-4.93,-4.9319,-4.9314,-4.9346,-4.9359,-4.9303,-4.9321,-4.9319,-4.9358,-4.9385,-4.9404,-4.9461,-4.9435,-4.9458,-4.9433,-4.9525,-4.9436,-4.9453,-4.9438,-4.9437,-4.9443,-4.9544,-4.9547,-4.955,-4.9552,0,-4.9494,-4.947,-4.9492,-4.9507,-4.9526,-4.9535,-4.954,-4.956,-4.9501,-4.9525,-4.9558,-4.9573,-4.9603,-4.9632,-4.9648,-4.9641,-4.9589,-4.958,-4.9599,-4.9618,-4.9634,-4.9629,-4.9342,-4.9575,-4.9572,-4.9571,-4.9569,-4.9568,-4.966,-4.9699,-4.9689,-4.9716,-4.9713,-4.972,-4.9754,-4.973,-4.9756,-4.9775,-4.9741,-4.9783,-4.9778,-4.9794,-4.9793,-4.9827,-4.9788,-4.9816,-4.9823,-4.9831,-4.9845,-4.9626,-4.983,-4.9829,-4.9828,-4.9828,-4.9827,0,-4.9877,-4.9866,-4.9891,-4.99,-4.9922,-4.9867,-4.987,-4.9893,-4.9931,-4.993,-4.995,-4.9989,-5.0017,-4.9993,-5.0017,-5.0049,-5.0025,-5.0057,-5.0056,-5.0056,-4.9877,-4.9859,-5.0076,-5.0076,-5.0076,-5.0076,-5.0076,-5.0076,-4.9992,-5.0056,-5.0032,-5.0096,-5.0084,-5.0124,-5.0131,-5.0137,-5.0136,-5.0182,-5.0205,-5.0188,-5.0179,-5.0202,-5.0226,-5.0218,-5.0232,-5.0273,-5.0258,-5.0092,-5.0068,-5.0045,-5.0027,-5.0276,-5.0276,-5.0433,-5.0435,-5.0436]},{"header":{"parameterUnit":"m.s-1","parameterCategory":1,"la1":30.2991,"la2":30.254,"lo1":-89.0895,"lo2":-89.0444,"dy":0.0017,"dx":0.0017,"nx":28,"ny":28,"refTime":"2024-08-22T03:00:00:Z","depth":0,"parameterNumber":3,"parameterNumberName":"V-component_of_WINDS"},"data":[0,0,0,0,0,0,0,0,0,0,0,0,0,0,0,0,0,0,0,0,0,0,0,0,0,0,0,0,0,0,0,0,0,0,0,0,0,0,0,0,0,0,0,0,0,0,0,0,0,0,0,0,0,0,0,0,0,0,-0.9588,-0.9588,0,-0.9612,-0.9612,-0.9613,-0.9592,-0.9591,-0.959,-0.9589,-0.9616,-0.9618,-0.9619,0,0,0,0,0,0,0,0,0,0,0,0,0,-0.9524,-0.9526,-0.9588,-0.9588,-0.9588,-0.9612,-0.9612,-0.9613,-0.9592,-0.9591,-0.959,-0.9589,-0.9616,-0.9617,-0.9619,0,0,0,0,0,0,0,0,0,0,0,0,0,-0.9551,-0.9526,-0.9588,-0.9581,-0.9581,-0.9612,-0.9612,-0.9613,-0.9592,-0.9591,-0.959,-0.9589,-0.9615,-0.9617,-0.962,-0.966,0,0,-0.9626,-0.9627,0,0,0,0,0,0,0,0,-0.9549,-0.9553,-0.9582,-0.9581,-0.9581,-0.9598,-0.96,-0.9629,-0.9593,-0.9588,-0.9589,-0.9588,-0.9611,-0.9614,-0.9621,-0.9661,-0.9662,-0.9627,-0.9628,-0.9629,-0.963,0,0,0,0,0,0,0,-0.9548,-0.9552,-0.9597,-0.9582,-0.9582,-0.9577,-0.9579,-0.9605,-0.9607,-0.9588,-0.9587,-0.959,-0.9611,-0.9619,-0.9622,-0.9662,-0.9627,-0.9629,-0.963,-0.9631,-0.9737,-0.9738,0,0,0,0,0,0,-0.9546,-0.9551,-0.9597,-0.9598,-0.9562,-0.9579,-0.9582,-0.9594,-0.9606,-0.9607,-0.9591,-0.9589,-0.9616,-0.9619,-0.9623,-0.9671,-0.9629,-0.9631,-0.9632,-0.9735,-0.9737,-0.9738,0,0,0,0,0,0,-0.9545,-0.9551,-0.9596,-0.9574,-0.9579,-0.9582,-0.9595,-0.9595,-0.9603,-0.9608,-0.9609,-0.9599,-0.9615,-0.9619,-0.9651,-0.9672,-0.9632,-0.9634,-0.9733,-0.9736,-0.9738,-0.9768,0,0,0,0,0,0,-0.9543,-0.955,-0.9565,-0.9574,-0.9581,-0.9623,-0.9596,-0.9596,-0.9607,-0.9604,-0.9616,-0.9617,-0.9614,-0.9647,-0.9653,-0.9674,-0.9636,-0.9732,-0.9734,-0.9737,-0.9766,-0.9771,-0.9776,0,0,0,0,0,-0.9541,-0.9573,-0.9566,-0.9572,-0.9599,-0.9624,-0.9628,-0.9624,-0.9609,-0.9624,-0.9627,-0.9616,-0.9668,-0.9651,-0.9657,-0.9679,-0.973,-0.9734,-0.9737,-0.9763,-0.977,-0.9776,0,0,0,0,0,0,-0.9567,-0.9574,-0.9567,-0.9603,-0.9613,-0.9621,-0.964,-0.9631,-0.9647,-0.9644,-0.9639,-0.9641,-0.9675,-0.968,-0.966,-0.9719,-0.9697,-0.9701,-0.9715,-0.9722,-0.9727,-0.9726,-0.9638,0,0,0,0,0,-0.9577,-0.9596,-0.9601,-0.9633,-0.9638,-0.9638,-0.9649,-0.9645,-0.9656,-0.966,-0.9666,-0.9677,-0.9696,-0.9709,-0.9726,-0.9765,-0.9768,-0.9784,-0.9789,-0.9793,-0.9798,-0.982,-0.9828,-0.9749,-0.9749,-0.9749,0,0,-0.9598,-0.9604,-0.9617,-0.9638,-0.9646,-0.9666,-0.9642,-0.9665,-0.9681,-0.9664,-0.9694,-0.9698,-0.971,-0.9746,-0.9762,-0.9751,-0.982,-0.9798,-0.9801,-0.9804,-0.9825,-0.9832,-0.9839,-0.9751,-0.9751,-0.9751,0,0,-0.9647,-0.9653,-0.968,-0.9688,-0.9699,-0.9699,-0.9705,-0.9714,-0.9717,-0.9746,-0.9734,-0.9753,-0.9785,-0.9794,-0.9804,-0.9855,-0.9846,-0.9861,-0.989,-0.9911,-0.9918,-0.9923,-0.9943,-0.995,-0.9865,-0.9865,-0.9865,0,-0.9672,-0.9702,-0.9695,-0.9719,-0.9729,-0.9714,-0.9742,-0.975,-0.9767,-0.9774,-0.9761,-0.9802,-0.9809,-0.9847,-0.9859,-0.9867,-0.9875,-0.9861,-0.9917,-0.9923,-0.9928,-0.9947,-0.9954,-0.9867,-0.9867,-0.9866,-0.9866,0,-0.9733,-0.9754,-0.9775,-0.9791,-0.9803,-0.9829,-0.9826,-0.9839,-0.9834,-0.9835,-0.9866,-0.9873,-0.9892,-0.99,-0.9895,-0.9938,-0.9931,-0.9918,-0.9896,-0.9937,-0.9955,-0.9962,-0.9869,-0.9869,-0.9868,-0.9868,0,0,-0.9802,-0.9813,-0.9821,-0.9828,-0.9839,-0.9855,-0.988,-0.9898,-0.991,-0.9922,-0.9944,-0.9971,-0.9958,-0.9968,-0.9964,-0.9982,-1.0025,-0.9967,-0.9967,-0.9979,-1.0074,-1.0086,-1.0094,-1.0017,-1.0019,-1.002,-1.0074,0,-0.9853,-0.9896,-0.989,-0.9932,-0.9952,-0.9937,-0.9958,-0.9968,-0.9969,-0.9986,-0.9988,-1.0008,-0.9989,-0.9995,-1.0013,-1.0016,-1.0044,-1.0011,-1.0039,-1.004,-1.0039,-1.0103,-1.0116,-1.0166,-1.008,-1.0081,-1.0082,0,-0.9919,-0.9932,-0.9976,-0.9984,-0.9992,-1.0012,-1.0028,-1.0044,-1.0055,-1.0054,-1.0065,-1.0057,-1.0083,-1.0058,-1.0094,-1.0072,-1.0083,-1.0086,-1.0087,-1.0092,-1.0066,-1.0112,-1.0182,-1.0191,-1.0093,-1.0092,-1.0091,0,-0.9967,-0.9996,-1.0026,-1.0032,-1.0042,-1.0056,-1.0061,-1.007,-1.0081,-1.0095,-1.0102,-1.0119,-1.0129,-1.0142,-1.0139,-1.0121,-1.0176,-1.0151,-1.0178,-1.0178,-1.0192,-1.0192,-1.0268,-1.0195,-1.0195,-1.0195,-1.0195,0,-1.0026,-1.0054,-1.0048,-1.0067,-1.0098,-1.009,-1.0121,-1.0124,-1.0131,-1.0151,-1.0138,-1.0157,-1.015,-1.0169,-1.0166,-1.0197,-1.0201,-1.0202,-1.0202,-1.0205,-1.0205,-1.0214,-1.0211,-1.0197,-1.0196,-1.0196,-1.0196,0,-1.0086,-1.0083,-1.0115,-1.0121,-1.0123,-1.0146,-1.0151,-1.0169,-1.0168,-1.0193,-1.0199,-1.0198,-1.0219,-1.0217,-1.024,-1.0238,-1.0277,-1.0271,-1.0274,-1.0274,-1.0301,-1.0299,-1.0387,-1.0399,-1.0317,-1.0317,-1.0318,0,-1.0125,-1.0146,-1.0154,-1.0166,-1.0172,-1.0191,-1.0202,-1.0195,-1.0207,-1.022,-1.0237,-1.0256,-1.0272,-1.0306,-1.0309,-1.0326,-1.0322,-1.0352,-1.0325,-1.0328,-1.0325,-1.0325,-1.0328,-1.0358,-1.0359,-1.0359,-1.036,0,-1.0196,-1.0193,-1.021,-1.0226,-1.0239,-1.0252,-1.0263,-1.0273,-1.0267,-1.0281,-1.0302,-1.0314,-1.0338,-1.0358,-1.0375,-1.038,-1.037,-1.0368,-1.0375,-1.038,-1.0382,-1.0383,-1.0291,-1.0367,-1.0366,-1.0366,-1.0365,-1.0365,-1.0248,-1.0267,-1.0275,-1.0294,-1.0301,-1.0312,-1.0329,-1.033,-1.0347,-1.0366,-1.036,-1.0385,-1.0394,-1.0415,-1.0422,-1.0441,-1.0431,-1.0441,-1.0444,-1.0447,-1.0452,-1.0376,-1.0444,-1.0444,-1.0443,-1.0443,-1.0443,0,-1.032,-1.0324,-1.0342,-1.0357,-1.0372,-1.0359,-1.0371,-1.0384,-1.0406,-1.0415,-1.043,-1.0454,-1.0473,-1.0476,-1.0495,-1.051,-1.0506,-1.0515,-1.0515,-1.0517,-1.0459,-1.0452,-1.0518,-1.0518,-1.0518,-1.0518,-1.0518,-1.0518,-1.0359,-1.039,-1.0388,-1.0422,-1.0426,-1.045,-1.0458,-1.0467,-1.0475,-1.0502,-1.0518,-1.0519,-1.0526,-1.0545,-1.0562,-1.0562,-1.0571,-1.0583,-1.0582,-1.0528,-1.0521,-1.0514,-1.0507,-1.0584,-1.0584,-1.0638,-1.0639,-1.0639]}]]